Datum Uhrzeit Temperatur Luft Windgeschw. Regen Regen (1h) Temp (1h) Luftdruck Windrichtung Taupunkt Sensor
2018-07-17 04:06:00 12.8 83.0 0.0 0.0 0.0 -0.7 10.0 Kombisensor
2018-07-17 04:01:00 12.8 82.0 0.0 0.0 0.0 -0.8 9.8 Kombisensor
2018-07-17 03:53:00 12.9 82.0 0.0 0.0 0.0 -0.7 9.9 Kombisensor
2018-07-17 03:40:00 13.0 82.0 0.0 0.0 0.0 -0.7 10.0 Kombisensor
2018-07-17 03:38:00 13.1 82.0 0.0 0.0 0.0 -0.7 10.1 Kombisensor
2018-07-17 03:30:00 13.1 81.0 0.0 0.0 0.0 -0.8 9.9 Kombisensor
2018-07-17 03:23:00 13.2 81.0 0.0 0.0 0.0 -0.8 10.0 Kombisensor
2018-07-17 03:17:00 13.3 81.0 0.0 0.0 0.0 -0.8 10.1 Kombisensor
2018-07-17 03:15:00 13.4 81.0 0.0 0.0 0.0 -0.7 10.2 Kombisensor
2018-07-17 03:05:00 13.5 81.0 0.0 0.0 0.0 -0.6 10.3 Kombisensor
2018-07-17 02:52:00 13.6 81.0 0.0 0.0 0.0 -0.7 10.4 Kombisensor
2018-07-17 02:49:00 13.6 80.0 0.0 0.0 0.0 -0.7 10.2 Kombisensor
2018-07-17 02:39:00 13.7 80.0 0.0 0.0 0.0 -0.7 10.3 Kombisensor
2018-07-17 02:32:00 13.8 80.0 0.0 0.0 0.0 -0.7 10.4 Kombisensor
2018-07-17 02:29:00 13.9 80.0 0.0 0.0 0.0 -0.6 10.5 Kombisensor
2018-07-17 02:19:00 14.0 80.0 0.0 0.0 0.0 -0.7 10.6 Kombisensor
2018-07-17 02:11:00 14.1 80.0 0.0 0.0 0.0 -0.8 10.7 Kombisensor
2018-07-17 02:01:00 14.1 79.0 0.0 0.0 0.0 -1.0 10.5 Kombisensor
2018-07-17 01:54:00 14.2 78.0 0.0 0.0 0.0 -1.0 10.4 Kombisensor
2018-07-17 01:49:00 14.3 78.0 0.0 0.0 0.0 -0.9 10.5 Kombisensor
2018-07-17 01:36:00 14.4 78.0 0.0 0.0 0.0 -1.1 10.6 Kombisensor
2018-07-17 01:28:00 14.5 78.0 0.0 0.0 0.0 -1.2 10.7 Kombisensor
2018-07-17 01:21:00 14.6 77.0 0.0 0.0 0.0 -1.2 10.6 Kombisensor
2018-07-17 01:18:00 14.7 77.0 0.0 0.0 0.0 -1.1 10.7 Kombisensor
2018-07-17 01:15:00 14.8 77.0 0.0 0.0 0.0 -1.1 10.8 Kombisensor
2018-07-17 01:13:00 14.8 76.0 0.0 0.0 0.0 -1.1 10.6 Kombisensor
2018-07-17 01:08:00 14.9 76.0 0.0 0.0 0.0 -1.2 10.7 Kombisensor
2018-07-17 01:03:00 15.0 76.0 0.0 0.0 0.0 -1.2 10.8 Kombisensor
2018-07-17 00:58:00 15.1 76.0 0.0 0.0 0.0 -0.1 10.9 Kombisensor
2018-07-17 00:48:00 15.2 76.0 0.0 0.0 0.0 -0.1 11.0 Kombisensor
2018-07-17 00:42:00 15.3 75.0 0.0 0.0 0.0 -0.1 10.9 Kombisensor
2018-07-17 00:40:00 15.4 75.0 0.0 0.0 0.0 -0.1 11.0 Kombisensor
2018-07-17 00:35:00 15.5 75.0 0.0 0.0 0.0 -0.1 11.1 Kombisensor
2018-07-17 00:30:00 15.6 74.0 0.0 0.0 0.0 -0.1 11.0 Kombisensor
2018-07-17 00:25:00 15.7 74.0 0.0 0.0 0.0 -0.1 11.1 Kombisensor
2018-07-17 00:17:00 15.8 74.0 0.0 0.0 0.0 -0.1 11.2 Kombisensor
2018-07-17 00:14:00 15.9 74.0 0.0 0.0 0.0 -0.1 11.3 Kombisensor
2018-07-17 00:09:00 16.0 73.0 0.0 0.0 0.0 -0.1 11.2 Kombisensor
2018-07-17 00:07:00 16.1 73.0 0.0 0.0 0.0 -0.1 11.3 Kombisensor
2018-07-17 00:02:00 16.2 72.0 0.0 0.0 0.0 -1.6 11.2 Kombisensor